JJP332 ROAH-RJAA

Flight info

Callsign JJP332
Flight time 2h 8m
Altitude 39000
Route AMAMI Y574 SHIBK Y57 YULIA Y89 GUPER Y81 RUTAS
Aircraft A20N/M-SDE2E3FGHIRWXY/LB1

Departure

Time 2026-05-05 00:33
Airport Naha International Airport (ROAH)

Arrival

Time 2026-05-05 02:41
Airport Narita International Airport (RJAA)
Time Latitude Longitude Altitude Speed Heading
2026-05-05 00:09 26.20493 127.64835 21 ft 0 kts 88°
2026-05-05 00:21 26.20493 127.64834 21 ft 0 kts 88°
2026-05-05 00:23 26.20493 127.64833 21 ft 1 kts 88°
2026-05-05 00:23 26.20492 127.64816 20 ft 2 kts 87°
2026-05-05 00:23 26.20491 127.64799 19 ft 2 kts 88°
2026-05-05 00:23 26.20491 127.64781 18 ft 2 kts 105°
2026-05-05 00:24 26.20498 127.64766 17 ft 2 kts 129°
2026-05-05 00:24 26.20510 127.64754 17 ft 2 kts 154°
2026-05-05 00:24 26.20522 127.64750 16 ft 0 kts 175°
2026-05-05 00:24 26.20530 127.64750 16 ft 1 kts 179°
2026-05-05 00:26 26.20523 127.64750 16 ft 3 kts 179°
2026-05-05 00:26 26.20481 127.64751 17 ft 7 kts 178°
2026-05-05 00:27 26.20413 127.64754 19 ft 11 kts 177°
2026-05-05 00:27 26.20319 127.64759 20 ft 14 kts 178°
2026-05-05 00:27 26.20213 127.64764 23 ft 13 kts 177°
2026-05-05 00:27 26.20122 127.64769 25 ft 12 kts 177°
2026-05-05 00:28 26.20026 127.64772 25 ft 14 kts 178°
2026-05-05 00:28 26.19915 127.64778 23 ft 16 kts 176°
2026-05-05 00:28 26.19791 127.64789 21 ft 18 kts 179°
2026-05-05 00:28 26.19660 127.64790 22 ft 18 kts 179°
2026-05-05 00:29 26.19537 127.64796 25 ft 16 kts 177°
2026-05-05 00:29 26.19418 127.64801 27 ft 16 kts 177°
2026-05-05 00:29 26.19287 127.64806 27 ft 21 kts 178°
2026-05-05 00:29 26.19123 127.64814 29 ft 24 kts 178°
2026-05-05 00:30 26.18946 127.64822 28 ft 24 kts 177°
2026-05-05 00:30 26.18771 127.64831 26 ft 24 kts 178°
2026-05-05 00:30 26.18603 127.64839 27 ft 23 kts 178°
2026-05-05 00:30 26.18438 127.64847 25 ft 20 kts 177°
2026-05-05 00:31 26.18298 127.64852 21 ft 20 kts 187°
2026-05-05 00:31 26.18243 127.64745 18 ft 12 kts 270°
2026-05-05 00:31 26.18267 127.64656 19 ft 12 kts 327°
2026-05-05 00:31 26.18347 127.64644 21 ft 10 kts 358°
2026-05-05 00:32 26.18362 127.64643 21 ft 4 kts 358°
2026-05-05 00:32 26.18685 127.64632 27 ft 85 kts 358°
2026-05-05 00:32 26.19513 127.64590 32 ft 150 kts 359°
2026-05-05 00:32 26.20697 127.64545 486 ft 166 kts
2026-05-05 00:33 26.21853 127.64491 1350 ft 163 kts
2026-05-05 00:33 26.23000 127.64428 2111 ft 166 kts
2026-05-05 00:33 26.24208 127.64371 2659 ft 180 kts
2026-05-05 00:33 26.25523 127.64258 3175 ft 196 kts 352°
2026-05-05 00:34 26.26853 127.63718 3655 ft 217 kts 335°
2026-05-05 00:34 26.28242 127.62862 4224 ft 235 kts 330°
2026-05-05 00:34 26.29701 127.61898 4861 ft 250 kts 329°
2026-05-05 00:34 26.31311 127.60836 5548 ft 265 kts 328°
2026-05-05 00:35 26.32954 127.59764 6451 ft 271 kts 327°
2026-05-05 00:35 26.34643 127.58669 7430 ft 273 kts 326°
2026-05-05 00:35 26.36337 127.57576 8382 ft 276 kts 326°
2026-05-05 00:35 26.38070 127.56458 9286 ft 280 kts 324°
2026-05-05 00:36 26.39611 127.55073 10097 ft 279 kts 304°
2026-05-05 00:36 26.40545 127.53199 10827 ft 281 kts 285°
2026-05-05 00:36 26.40813 127.51013 11326 ft 293 kts 265°
2026-05-05 00:36 26.40276 127.48720 11870 ft 307 kts 244°
2026-05-05 00:37 26.38987 127.46758 12694 ft 312 kts 231°
2026-05-05 00:37 26.37551 127.44932 13533 ft 314 kts 231°
2026-05-05 00:37 26.36059 127.43034 14368 ft 316 kts 228°
2026-05-05 00:37 26.34153 127.41515 15137 ft 326 kts 207°
2026-05-05 00:38 26.31808 127.40884 15902 ft 338 kts 188°
2026-05-05 00:38 26.29413 127.40890 16621 ft 342 kts 185°
2026-05-05 00:38 26.26958 127.40919 17271 ft 347 kts 185°
2026-05-05 00:38 26.24449 127.40945 17916 ft 351 kts 185°
2026-05-05 00:39 26.21995 127.40969 18570 ft 353 kts 185°
2026-05-05 00:39 26.19548 127.40990 19171 ft 357 kts 185°
2026-05-05 00:39 26.17009 127.41016 19763 ft 361 kts 185°
2026-05-05 00:39 26.14489 127.41303 20330 ft 373 kts 171°
2026-05-05 00:40 26.12080 127.42532 21009 ft 387 kts 152°
2026-05-05 00:40 26.10115 127.44624 21631 ft 401 kts 132°
2026-05-05 00:40 26.08830 127.47517 22131 ft 420 kts 110°
2026-05-05 00:40 26.08563 127.50859 22540 ft 436 kts 86°
2026-05-05 00:41 26.09146 127.54237 23016 ft 443 kts 79°
2026-05-05 00:41 26.09869 127.57718 23468 ft 449 kts 79°
2026-05-05 00:41 26.10590 127.61262 23958 ft 454 kts 79°
2026-05-05 00:41 26.11299 127.64918 24505 ft 458 kts 80°
2026-05-05 00:42 26.11991 127.68613 25025 ft 462 kts 80°
2026-05-05 00:42 26.12677 127.72355 25513 ft 467 kts 80°
2026-05-05 00:42 26.13349 127.76037 26162 ft 467 kts 80°
2026-05-05 00:42 26.14024 127.79760 26755 ft 468 kts 79°
2026-05-05 00:43 26.14699 127.83479 27217 ft 472 kts 80°
2026-05-05 00:43 26.15373 127.87196 27625 ft 477 kts 79°
2026-05-05 00:43 26.16081 127.91045 28072 ft 481 kts 77°
2026-05-05 00:43 26.17320 127.94644 28413 ft 485 kts 57°
2026-05-05 00:44 26.19456 127.97560 28779 ft 480 kts 36°
2026-05-05 00:44 26.22206 127.99676 29150 ft 475 kts 25°
2026-05-05 00:44 26.25227 128.01623 29614 ft 477 kts 23°
2026-05-05 00:44 26.28236 128.03540 30050 ft 479 kts 24°
2026-05-05 00:45 26.31245 128.05492 30423 ft 484 kts 24°
2026-05-05 00:45 26.34302 128.07515 30788 ft 488 kts 25°
2026-05-05 00:45 26.37361 128.09569 31201 ft 491 kts 25°
2026-05-05 00:45 26.40438 128.11652 31606 ft 493 kts 24°
2026-05-05 00:46 26.43499 128.13728 32106 ft 492 kts 24°
2026-05-05 00:46 26.46569 128.15816 32569 ft 492 kts 24°
2026-05-05 00:46 26.49658 128.17915 33013 ft 492 kts 24°
2026-05-05 00:46 26.52750 128.20015 33474 ft 491 kts 24°
2026-05-05 00:47 26.55805 128.22087 33900 ft 491 kts 24°
2026-05-05 00:47 26.58941 128.24220 34348 ft 490 kts 24°
2026-05-05 00:47 26.61965 128.26300 34791 ft 490 kts 26°
2026-05-05 00:47 26.64858 128.28522 35251 ft 491 kts 30°
2026-05-05 00:48 26.67510 128.30859 35692 ft 492 kts 34°
2026-05-05 00:48 26.70108 128.33489 36089 ft 494 kts 39°
2026-05-05 00:48 26.72483 128.36247 36398 ft 497 kts 43°
2026-05-05 00:48 26.74713 128.39210 36676 ft 500 kts 46°
2026-05-05 00:49 26.76822 128.42207 36954 ft 501 kts 47°
2026-05-05 00:49 26.78997 128.45335 37220 ft 501 kts 47°
2026-05-05 00:49 26.81166 128.48439 37489 ft 501 kts 47°
2026-05-05 00:49 26.83341 128.51531 37761 ft 501 kts 47°
2026-05-05 00:50 26.85513 128.54596 38027 ft 500 kts 46°
2026-05-05 00:50 26.87741 128.57735 38271 ft 500 kts 46°
2026-05-05 00:50 26.90040 128.60741 38452 ft 499 kts 41°
2026-05-05 00:50 26.92531 128.63533 38618 ft 497 kts 36°
2026-05-05 00:51 26.95181 128.66052 38752 ft 495 kts 31°
2026-05-05 00:51 26.98077 128.68370 38889 ft 492 kts 26°
2026-05-05 00:51 27.01065 128.70372 39081 ft 488 kts 21°
2026-05-05 00:52 27.07104 128.73994 39150 ft 484 kts 20°
2026-05-05 00:52 27.13257 128.77667 39151 ft 484 kts 20°
2026-05-05 00:53 27.19269 128.81300 39152 ft 484 kts 20°
2026-05-05 00:53 27.25343 128.84992 39154 ft 483 kts 20°
2026-05-05 00:54 27.31352 128.88654 39153 ft 484 kts 20°
2026-05-05 00:54 27.37468 128.92383 39152 ft 484 kts 20°
2026-05-05 00:55 27.43536 128.96091 39152 ft 485 kts 20°
2026-05-05 00:55 27.49643 128.99828 39151 ft 485 kts 20°
2026-05-05 00:56 27.55656 129.03510 39152 ft 486 kts 20°
2026-05-05 00:56 27.61659 129.07191 39152 ft 485 kts 20°
2026-05-05 00:57 27.67685 129.10893 39153 ft 485 kts 20°
2026-05-05 00:57 27.73684 129.14577 39153 ft 486 kts 20°
2026-05-05 00:58 27.79740 129.18306 39153 ft 485 kts 20°
2026-05-05 00:58 27.85788 129.22032 39150 ft 486 kts 20°
2026-05-05 00:59 27.91783 129.25732 39151 ft 486 kts 20°
2026-05-05 00:59 27.97821 129.29465 39152 ft 486 kts 19°
2026-05-05 01:00 28.03858 129.33200 39154 ft 486 kts 20°
2026-05-05 01:00 28.09798 129.36874 39155 ft 488 kts 20°
2026-05-05 01:01 28.15674 129.40523 39159 ft 488 kts 20°
2026-05-05 01:01 28.21509 129.44151 39160 ft 487 kts 19°
2026-05-05 01:02 28.27462 129.47853 39157 ft 488 kts 19°
2026-05-05 01:02 28.33404 129.51555 39161 ft 489 kts 20°
2026-05-05 01:03 28.39051 129.55646 39154 ft 501 kts 34°
2026-05-05 01:03 28.41468 129.58429 39153 ft 510 kts 46°
2026-05-05 01:03 28.43444 129.61675 39153 ft 517 kts 58°
2026-05-05 01:03 28.44918 129.65329 39160 ft 524 kts 70°
2026-05-05 01:04 28.45807 129.69209 39135 ft 526 kts 82°
2026-05-05 01:04 28.46949 129.81580 39151 ft 527 kts 85°
2026-05-05 01:05 28.47759 129.89868 39153 ft 527 kts 84°
2026-05-05 01:05 28.48658 129.98135 39160 ft 527 kts 84°
2026-05-05 01:06 28.49596 130.06433 39153 ft 528 kts 81°
2026-05-05 01:06 28.51496 130.14523 39159 ft 527 kts 67°
2026-05-05 01:07 28.54801 130.22000 39154 ft 521 kts 52°
2026-05-05 01:07 28.58954 130.28781 39160 ft 519 kts 49°
2026-05-05 01:08 28.63181 130.35553 39157 ft 519 kts 50°
2026-05-05 01:08 28.67337 130.42378 39153 ft 520 kts 50°
2026-05-05 01:09 28.71454 130.49229 39154 ft 520 kts 51°
2026-05-05 01:09 28.75548 130.56036 39161 ft 521 kts 50°
2026-05-05 01:10 28.79711 130.62949 39153 ft 521 kts 50°
2026-05-05 01:10 28.83758 130.69684 39148 ft 521 kts 52°
2026-05-05 01:11 28.87867 130.76546 39156 ft 521 kts 51°
2026-05-05 01:11 28.91925 130.83311 39150 ft 523 kts 51°
2026-05-05 01:12 28.95998 130.90135 39146 ft 523 kts 51°
2026-05-05 01:12 29.00050 130.96939 39153 ft 522 kts 51°
2026-05-05 01:13 29.04133 131.03783 39154 ft 523 kts 51°
2026-05-05 01:13 29.08165 131.10568 39162 ft 523 kts 51°
2026-05-05 01:14 29.12219 131.17398 39157 ft 522 kts 51°
2026-05-05 01:14 29.16220 131.24144 39155 ft 522 kts 51°
2026-05-05 01:15 29.20240 131.30927 39148 ft 523 kts 51°
2026-05-05 01:15 29.24261 131.37743 39161 ft 523 kts 51°
2026-05-05 01:16 29.28302 131.44592 39159 ft 525 kts 51°
2026-05-05 01:16 29.32293 131.51370 39155 ft 525 kts 51°
2026-05-05 01:17 29.36307 131.58200 39159 ft 523 kts 52°
2026-05-05 01:17 29.40367 131.65122 39164 ft 524 kts 52°
2026-05-05 01:18 29.44445 131.72086 39158 ft 525 kts 52°
2026-05-05 01:18 29.48487 131.78999 39164 ft 526 kts 51°
2026-05-05 01:19 29.52493 131.85863 39154 ft 525 kts 51°
2026-05-05 01:19 29.56424 131.92601 39157 ft 526 kts 52°
2026-05-05 01:20 29.60324 131.99316 39156 ft 525 kts 52°
2026-05-05 01:20 29.64281 132.06123 39159 ft 525 kts 51°
2026-05-05 01:21 29.68612 132.12686 39161 ft 522 kts 44°
2026-05-05 01:21 29.73116 132.18947 39173 ft 520 kts 44°
2026-05-05 01:22 29.77595 132.25165 39170 ft 523 kts 45°
2026-05-05 01:22 29.82054 132.31426 39173 ft 523 kts 45°
2026-05-05 01:23 29.86540 132.37743 39195 ft 522 kts 45°
2026-05-05 01:23 29.90990 132.44025 39184 ft 520 kts 45°
2026-05-05 01:24 29.95463 132.50334 39178 ft 523 kts 45°
2026-05-05 01:24 29.99957 132.56708 39181 ft 522 kts 45°
2026-05-05 01:25 30.04471 132.63110 39182 ft 521 kts 45°
2026-05-05 01:25 30.08901 132.69388 39182 ft 522 kts 45°
2026-05-05 01:26 30.13402 132.75781 39182 ft 522 kts 46°
2026-05-05 01:26 30.17902 132.82179 39178 ft 523 kts 45°
2026-05-05 01:27 30.22362 132.88562 39172 ft 522 kts 46°
2026-05-05 01:27 30.26851 132.94971 39178 ft 522 kts 45°
2026-05-05 01:28 30.31373 133.01436 39181 ft 522 kts 46°
2026-05-05 01:28 30.35809 133.07802 39176 ft 523 kts 46°
2026-05-05 01:29 30.40331 133.14287 39174 ft 524 kts 46°
2026-05-05 01:29 30.44894 133.20853 39180 ft 526 kts 46°
2026-05-05 01:30 30.49430 133.27397 39183 ft 526 kts 46°
2026-05-05 01:30 30.53936 133.33888 39185 ft 526 kts 46°
2026-05-05 01:31 30.58445 133.40402 39182 ft 527 kts 46°
2026-05-05 01:31 30.62934 133.46912 39184 ft 526 kts 46°
2026-05-05 01:32 30.67451 133.53453 39192 ft 528 kts 46°
2026-05-05 01:32 30.71984 133.60036 39196 ft 527 kts 46°
2026-05-05 01:33 30.76479 133.66574 39190 ft 527 kts 46°
2026-05-05 01:33 30.80954 133.73085 39211 ft 530 kts 47°
2026-05-05 01:34 30.85478 133.79700 39203 ft 531 kts 47°
2026-05-05 01:34 30.90062 133.86389 39205 ft 532 kts 47°
2026-05-05 01:35 30.94610 133.93054 39209 ft 532 kts 47°
2026-05-05 01:35 30.99279 133.99889 39205 ft 534 kts 48°
2026-05-05 01:36 31.03945 134.06760 39190 ft 534 kts 48°
2026-05-05 01:36 31.08680 134.13716 39195 ft 534 kts 48°
2026-05-05 01:37 31.13308 134.20544 39197 ft 534 kts 46°
2026-05-05 01:37 31.17905 134.27325 39191 ft 534 kts 47°
2026-05-05 01:38 31.22541 134.34186 39183 ft 534 kts 47°
2026-05-05 01:38 31.27169 134.41046 39190 ft 534 kts 47°
2026-05-05 01:39 31.31867 134.48019 39191 ft 533 kts 47°
2026-05-05 01:39 31.36468 134.54863 39195 ft 532 kts 47°
2026-05-05 01:40 31.41134 134.61804 39193 ft 534 kts 47°
2026-05-05 01:40 31.45639 134.68527 39195 ft 534 kts 47°
2026-05-05 01:41 31.50194 134.75336 39194 ft 535 kts 47°
2026-05-05 01:41 31.54679 134.82057 39190 ft 535 kts 47°
2026-05-05 01:42 31.59192 134.88820 39195 ft 535 kts 48°
2026-05-05 01:42 31.63669 134.95549 39202 ft 536 kts 48°
2026-05-05 01:43 31.68167 135.02333 39185 ft 535 kts 47°
2026-05-05 01:43 31.72529 135.09106 39199 ft 537 kts 51°
2026-05-05 01:44 31.76572 135.16298 39190 ft 539 kts 55°
2026-05-05 01:44 31.80583 135.23625 39198 ft 540 kts 54°
2026-05-05 01:45 31.84617 135.30955 39206 ft 541 kts 54°
2026-05-05 01:45 31.88662 135.38298 39206 ft 543 kts 53°
2026-05-05 01:46 31.92706 135.45636 39206 ft 542 kts 54°
2026-05-05 01:46 31.96750 135.52988 39200 ft 543 kts 53°
2026-05-05 01:47 32.00753 135.60281 39204 ft 544 kts 54°
2026-05-05 01:47 32.04774 135.67621 39187 ft 544 kts 55°
2026-05-05 01:48 32.08919 135.75203 39187 ft 545 kts 54°
2026-05-05 01:48 32.12889 135.82469 39193 ft 545 kts 55°
2026-05-05 01:49 32.16845 135.89745 39211 ft 545 kts 54°
2026-05-05 01:49 32.20802 135.97017 39182 ft 545 kts 54°
2026-05-05 01:50 32.24754 136.04303 39184 ft 546 kts 54°
2026-05-05 01:50 32.28701 136.11592 39200 ft 545 kts 54°
2026-05-05 01:51 32.32663 136.18912 39186 ft 545 kts 54°
2026-05-05 01:51 32.36609 136.26207 39198 ft 546 kts 54°
2026-05-05 01:52 32.40534 136.33481 39190 ft 546 kts 54°
2026-05-05 01:52 32.44484 136.40819 39188 ft 546 kts 54°
2026-05-05 01:53 32.48449 136.48200 39188 ft 546 kts 54°
2026-05-05 01:53 32.52388 136.55542 39199 ft 546 kts 55°
2026-05-05 01:54 32.56327 136.62904 39199 ft 546 kts 54°
2026-05-05 01:54 32.60284 136.70308 39200 ft 547 kts 55°
2026-05-05 01:55 32.64256 136.77762 39199 ft 547 kts 54°
2026-05-05 01:55 32.68319 136.85397 39195 ft 547 kts 56°
2026-05-05 01:56 32.72337 136.92979 39188 ft 548 kts 56°
2026-05-05 01:56 32.76394 137.00629 39193 ft 549 kts 55°
2026-05-05 01:57 32.80443 137.08290 39185 ft 549 kts 55°
2026-05-05 01:57 32.84507 137.15987 39188 ft 550 kts 56°
2026-05-05 01:58 32.88585 137.23738 39170 ft 550 kts 56°
2026-05-05 01:58 32.92679 137.31522 39192 ft 552 kts 55°
2026-05-05 01:59 32.96770 137.39333 39206 ft 553 kts 55°
2026-05-05 01:59 33.00834 137.47122 39201 ft 552 kts 55°
2026-05-05 02:00 33.04824 137.54739 39209 ft 552 kts 56°
2026-05-05 02:00 33.08792 137.62363 39180 ft 552 kts 56°
2026-05-05 02:01 33.12830 137.70117 39187 ft 553 kts 57°
2026-05-05 02:01 33.16826 137.77829 39185 ft 554 kts 56°
2026-05-05 02:02 33.20792 137.85478 39177 ft 553 kts 57°
2026-05-05 02:02 33.24777 137.93185 39183 ft 554 kts 57°
2026-05-05 02:03 33.28737 138.00871 39184 ft 553 kts 56°
2026-05-05 02:03 33.32756 138.08696 39198 ft 554 kts 57°
2026-05-05 02:04 33.36703 138.16374 39192 ft 553 kts 56°
2026-05-05 02:04 33.40649 138.24083 39160 ft 553 kts 56°
2026-05-05 02:05 33.44542 138.31694 39193 ft 554 kts 56°
2026-05-05 02:05 33.48462 138.39366 39207 ft 555 kts 56°
2026-05-05 02:06 33.52331 138.46967 39180 ft 555 kts 56°
2026-05-05 02:06 33.56219 138.54591 39207 ft 556 kts 56°
2026-05-05 02:07 33.60116 138.62283 39211 ft 556 kts 57°
2026-05-05 02:07 33.64011 138.69975 39176 ft 556 kts 57°
2026-05-05 02:08 33.67902 138.77664 39194 ft 558 kts 57°
2026-05-05 02:08 33.71810 138.85405 39181 ft 559 kts 58°
2026-05-05 02:09 33.75708 138.93173 39224 ft 561 kts 57°
2026-05-05 02:09 33.79623 139.00949 39194 ft 561 kts 57°
2026-05-05 02:10 33.83506 139.08701 39220 ft 561 kts 57°
2026-05-05 02:10 33.87413 139.16505 39214 ft 562 kts 58°
2026-05-05 02:11 33.89377 139.20444 38885 ft 562 kts 58°
2026-05-05 02:11 33.91354 139.24403 38354 ft 560 kts 58°
2026-05-05 02:11 33.93271 139.28255 37795 ft 559 kts 58°
2026-05-05 02:11 33.95232 139.32191 37215 ft 558 kts 58°
2026-05-05 02:12 33.97229 139.36227 36580 ft 558 kts 58°
2026-05-05 02:12 34.01123 139.44066 35265 ft 560 kts 58°
2026-05-05 02:12 34.03054 139.47960 34610 ft 560 kts 57°
2026-05-05 02:13 34.05001 139.51888 33949 ft 561 kts 58°
2026-05-05 02:13 34.07017 139.55772 33283 ft 561 kts 54°
2026-05-05 02:13 34.09220 139.59474 32674 ft 561 kts 49°
2026-05-05 02:13 34.11721 139.63298 31946 ft 563 kts 47°
2026-05-05 02:14 34.14376 139.67238 31160 ft 564 kts 47°
2026-05-05 02:14 34.16970 139.71062 30554 ft 560 kts 48°
2026-05-05 02:14 34.19221 139.74405 30047 ft 557 kts 48°
2026-05-05 02:14 34.21520 139.77869 29512 ft 554 kts 48°
2026-05-05 02:15 34.23972 139.81573 28932 ft 550 kts 47°
2026-05-05 02:15 34.26382 139.85223 28339 ft 546 kts 47°
2026-05-05 02:15 34.28775 139.88847 27755 ft 542 kts 47°
2026-05-05 02:15 34.31227 139.92566 27164 ft 538 kts 47°
2026-05-05 02:16 34.33666 139.96269 26544 ft 534 kts 46°
2026-05-05 02:16 34.36062 139.99902 25944 ft 529 kts 47°
2026-05-05 02:16 34.38368 140.03415 25530 ft 519 kts 47°
2026-05-05 02:16 34.40694 140.06959 25060 ft 512 kts 47°
2026-05-05 02:17 34.42942 140.10381 24552 ft 506 kts 46°
2026-05-05 02:17 34.45195 140.13847 23999 ft 503 kts 48°
2026-05-05 02:17 34.47223 140.17363 23543 ft 499 kts 52°
2026-05-05 02:17 34.49148 140.21033 23071 ft 493 kts 53°
2026-05-05 02:18 34.51014 140.24669 22616 ft 486 kts 54°
2026-05-05 02:18 34.52815 140.28209 22142 ft 481 kts 54°
2026-05-05 02:18 34.54610 140.31723 21699 ft 474 kts 53°
2026-05-05 02:18 34.56399 140.35207 21221 ft 468 kts 53°
2026-05-05 02:19 34.58167 140.38640 20743 ft 461 kts 53°
2026-05-05 02:19 34.59909 140.42026 20273 ft 455 kts 53°
2026-05-05 02:19 34.61607 140.45331 19793 ft 449 kts 53°
2026-05-05 02:19 34.63309 140.48648 19288 ft 442 kts 53°
2026-05-05 02:20 34.64971 140.51889 18860 ft 434 kts 53°
2026-05-05 02:20 34.66617 140.55098 18382 ft 427 kts 53°
2026-05-05 02:20 34.68235 140.58260 17926 ft 419 kts 52°
2026-05-05 02:20 34.69860 140.61438 17471 ft 411 kts 52°
2026-05-05 02:21 34.71443 140.64526 17037 ft 402 kts 50°
2026-05-05 02:21 34.73263 140.67058 16456 ft 383 kts 30°
2026-05-05 02:21 34.75679 140.68384 15944 ft 358 kts
2026-05-05 02:21 34.78173 140.68694 15524 ft 345 kts 358°
2026-05-05 02:22 34.80705 140.68854 14932 ft 342 kts 357°
2026-05-05 02:22 34.83184 140.69041 14402 ft 338 kts 359°
2026-05-05 02:22 34.85631 140.69270 13917 ft 333 kts 360°
2026-05-05 02:22 34.88007 140.69531 13471 ft 328 kts
2026-05-05 02:23 34.90300 140.69795 13027 ft 323 kts
2026-05-05 02:23 34.92583 140.70067 12576 ft 318 kts
2026-05-05 02:23 34.94885 140.70346 12113 ft 314 kts
2026-05-05 02:23 34.97147 140.70622 11708 ft 308 kts
2026-05-05 02:24 34.99376 140.70901 11536 ft 295 kts
2026-05-05 02:24 35.01489 140.71167 11415 ft 280 kts
2026-05-05 02:24 35.03494 140.71420 11286 ft 267 kts
2026-05-05 02:24 35.05373 140.71655 11173 ft 254 kts
2026-05-05 02:25 35.07157 140.72000 11039 ft 248 kts 15°
2026-05-05 02:25 35.08643 140.73256 11006 ft 248 kts 42°
2026-05-05 02:25 35.09769 140.75017 11011 ft 245 kts 46°
2026-05-05 02:25 35.10854 140.76770 11009 ft 244 kts 45°
2026-05-05 02:26 35.11953 140.78532 11013 ft 243 kts 45°
2026-05-05 02:26 35.13045 140.80273 11015 ft 243 kts 45°
2026-05-05 02:26 35.14164 140.82040 11016 ft 256 kts 45°
2026-05-05 02:26 35.15304 140.83844 11016 ft 259 kts 45°
2026-05-05 02:27 35.16596 140.85559 10993 ft 251 kts 25°
2026-05-05 02:27 35.18283 140.86195 10941 ft 239 kts 355°
2026-05-05 02:27 35.19957 140.85698 10503 ft 237 kts 332°
2026-05-05 02:27 35.21543 140.84749 10104 ft 237 kts 333°
2026-05-05 02:28 35.23115 140.83843 9747 ft 235 kts 334°
2026-05-05 02:28 35.24699 140.82939 9421 ft 234 kts 334°
2026-05-05 02:28 35.26263 140.82048 9097 ft 232 kts 334°
2026-05-05 02:28 35.27804 140.81172 8770 ft 230 kts 334°
2026-05-05 02:29 35.29353 140.80287 8454 ft 228 kts 334°
2026-05-05 02:29 35.30872 140.79421 8151 ft 226 kts 334°
2026-05-05 02:29 35.32366 140.78569 7851 ft 225 kts 334°
2026-05-05 02:29 35.33867 140.77712 7547 ft 223 kts 334°
2026-05-05 02:30 35.35365 140.76855 7251 ft 222 kts 334°
2026-05-05 02:30 35.36856 140.76006 6968 ft 221 kts 334°
2026-05-05 02:30 35.38352 140.75151 6679 ft 220 kts 333°
2026-05-05 02:30 35.39845 140.74298 6388 ft 218 kts 334°
2026-05-05 02:31 35.41292 140.73392 6084 ft 216 kts 322°
2026-05-05 02:31 35.42280 140.71878 5907 ft 209 kts 294°
2026-05-05 02:31 35.42835 140.70068 5932 ft 212 kts 290°
2026-05-05 02:31 35.43359 140.68257 5959 ft 212 kts 290°
2026-05-05 02:32 35.43893 140.66428 5985 ft 213 kts 291°
2026-05-05 02:32 35.44426 140.64661 5993 ft 212 kts 296°
2026-05-05 02:32 35.45361 140.63132 5997 ft 212 kts 321°
2026-05-05 02:32 35.46640 140.62122 6000 ft 212 kts 329°
2026-05-05 02:33 35.48005 140.61169 5986 ft 212 kts 330°
2026-05-05 02:33 35.49354 140.60229 5834 ft 214 kts 329°
2026-05-05 02:33 35.50711 140.59270 5531 ft 214 kts 329°
2026-05-05 02:33 35.52068 140.58304 5244 ft 212 kts 330°
2026-05-05 02:34 35.53394 140.57358 5022 ft 208 kts 330°
2026-05-05 02:34 35.54707 140.56445 5002 ft 208 kts 330°
2026-05-05 02:34 35.56070 140.55496 4990 ft 209 kts 330°
2026-05-05 02:34 35.57428 140.54533 4832 ft 210 kts 330°
2026-05-05 02:35 35.58785 140.53558 4527 ft 210 kts 329°
2026-05-05 02:35 35.60126 140.52586 4227 ft 210 kts 330°
2026-05-05 02:35 35.61441 140.51630 3919 ft 197 kts 330°
2026-05-05 02:35 35.62658 140.50743 3721 ft 178 kts 330°
2026-05-05 02:36 35.63765 140.49937 3455 ft 166 kts 330°
2026-05-05 02:36 35.64794 140.49190 3193 ft 156 kts 331°
2026-05-05 02:36 35.65780 140.48474 2945 ft 146 kts 331°
2026-05-05 02:36 35.66651 140.47841 2740 ft 139 kts 332°
2026-05-05 02:37 35.67546 140.47194 2553 ft 138 kts 331°
2026-05-05 02:37 35.68436 140.46549 2393 ft 139 kts 331°
2026-05-05 02:37 35.69297 140.45924 2215 ft 138 kts 332°
2026-05-05 02:37 35.70161 140.45300 2026 ft 139 kts 332°
2026-05-05 02:38 35.71006 140.44688 1843 ft 140 kts 332°
2026-05-05 02:38 35.71859 140.44072 1653 ft 140 kts 332°
2026-05-05 02:38 35.72714 140.43454 1465 ft 141 kts 332°
2026-05-05 02:38 35.73557 140.42844 1284 ft 137 kts 331°
2026-05-05 02:39 35.74384 140.42244 1079 ft 129 kts 332°
2026-05-05 02:39 35.75179 140.41672 909 ft 128 kts 330°
2026-05-05 02:39 35.75983 140.41083 724 ft 129 kts 331°
2026-05-05 02:39 35.76780 140.40489 567 ft 128 kts 332°
2026-05-05 02:40 35.77594 140.39946 394 ft 127 kts 330°
2026-05-05 02:40 35.78371 140.39381 260 ft 127 kts 329°
2026-05-05 02:40 35.79140 140.38809 135 ft 119 kts 330°
2026-05-05 02:40 35.79665 140.38425 140 ft 51 kts 327°
2026-05-05 02:41 35.79948 140.38226 141 ft 43 kts 327°
2026-05-05 02:41 35.80118 140.37997 141 ft 20 kts 300°
2026-05-05 02:41 35.80135 140.37962 141 ft 0 kts 301°
2026-05-05 02:41 35.80141 140.37947 141 ft 3 kts 295°
2026-05-05 02:42 35.80135 140.37883 140 ft 11 kts 231°
2026-05-05 02:42 35.80040 140.37898 139 ft 16 kts 150°
2026-05-05 02:42 35.79935 140.37975 137 ft 18 kts 149°
2026-05-05 02:42 35.79818 140.38058 137 ft 19 kts 150°
2026-05-05 02:43 35.79700 140.38145 138 ft 19 kts 148°
2026-05-05 02:43 35.79573 140.38235 137 ft 21 kts 150°
2026-05-05 02:43 35.79440 140.38332 136 ft 22 kts 149°
2026-05-05 02:43 35.79302 140.38432 133 ft 24 kts 150°
2026-05-05 02:44 35.79152 140.38541 129 ft 25 kts 150°
2026-05-05 02:44 35.79031 140.38683 131 ft 23 kts 117°
2026-05-05 02:44 35.78921 140.38809 135 ft 21 kts 159°
2026-05-05 02:44 35.78779 140.38852 136 ft 20 kts 185°
2026-05-05 02:45 35.78640 140.38823 137 ft 19 kts 189°
2026-05-05 02:45 35.78509 140.38802 139 ft 19 kts 186°
2026-05-05 02:45 35.78376 140.38783 139 ft 19 kts 187°
2026-05-05 02:45 35.78238 140.38783 137 ft 20 kts 166°
2026-05-05 02:46 35.78111 140.38817 137 ft 14 kts 186°
2026-05-05 02:46 35.78032 140.38747 140 ft 13 kts 224°
2026-05-05 02:46 35.77993 140.38664 143 ft 10 kts 296°
2026-05-05 02:46 35.78027 140.38623 143 ft 0 kts 332°